Tracking 30107 objects as of 19-Jan-2025
HD Live streaming from Space Station
objects crossing your sky now

NORSAT 3

Track NORSAT 3 now!
10-day predictions


NORAD ID: 48272
Int'l Code: 2021-034E
Perigee: 577.4 km
Apogee: 579.2 km
Inclination: 97.6 °
Period: 96.1 minutes
Semi major axis: 6949 km
RCS: Unknown
Launch date: April 29, 2021
Source: Norway (NOR)
Launch site: FRENCH GUIANA (FRGUI)
Your satellite tracking list
Your tracking list is empty




NASA's NSSDC Master Catalog

Two Line Element Set (TLE):
1 48272U 21034E   25018.79050474  .00009459  00000-0  79253-3 0  9991
2 48272  97.6324  82.9751 0001317  99.1041 261.0331 14.98621070202619
Source of the keplerian elements: AFSPC